Content
SEND FEEDBACK

Daily
Averages
Monthly
Summary
Mexico

CANCUN, QUINTANA ROO


Home > North America > Mexico > Quintana Roo
Elevation: 9 meters     Latitude: 21 09N     Longitude: 086 49W

WEATHER
 
SELECT A DAY
Number of Records: 167,808;   Date Range: 1/1/95 - 12/20/14
 
SHARE

PRINT THIS DATA

[ ← Previous Day ]
WEATHER ALMANAC - 12 OCTOBER, 2013
[ Next Day → ]
[ °F ]   °C
Weather ElementAverageHighLow
Temperature27.3 °C31 °C (11:40 am)22 °C (6:42 am)
Dewpoint23.3 °C25 °C (3:40 pm)22 °C (5:46 am)
Humidity79.6 %100 % (4:45 am)58 % (11:40 am)
Barometer1014.2 hPa1015.9 hPa (10:47 pm)1012.9 hPa (3:40 am)
Wind Speed8.5 km/h16.7 km/h (2:43 pm)
Weather ElementAverage
Visibility11.3 km
Wind DirectionENE (72.6 °)

Weather ElementTotal
Precipitation---
Cooling Degree Days8.2 (Base 18.3)
Growing Degree Days16.5 (Base 10)
Averaged from 23 records on 12 October, 2013
WEATHER CONDITIONS BREAKOUT
WIND DIRECTION BREAKOUT
WEATHER BY HOUR - 12 OCTOBER, 2013
[ °F ]   °C
Local TimeTemperatureDewpointHumidityBarometerVisibilityWind DirectionWind SpeedGust SpeedPrecipitationEventsConditions
1:44 AM26 °C23 °C83 %1013.5 hPa11.3 kmEast (80°)3.7 km/hScattered Clouds
2:40 AM26 °C23 °C83 %1013.2 hPa11.3 kmNE (50°)3.7 km/hScattered Clouds
3:40 AM24 °C23 °C94 %1012.9 hPa11.3 kmCalmScattered Clouds
4:45 AM23 °C23 °C100 %1013.5 hPa11.3 kmCalmScattered Clouds
5:46 AM23 °C22 °C94 %1013.5 hPa11.3 kmCalmPartly Cloudy
6:42 AM22 °C22 °C100 %1014.2 hPa11.3 kmCalmScattered Clouds
7:51 AM24 °C23 °C94 %1014.6 hPa11.3 kmNorth (350°)3.7 km/hScattered Clouds
8:42 AM29 °C24 °C74 %1015.2 hPa11.3 kmEast (80°)9.3 km/hScattered Clouds
9:42 AM30 °C24 °C70 %1015.2 hPa11.3 kmEast (100°)7.4 km/hMostly Cloudy
10:42 AM30 °C23 °C66 %1015.6 hPa11.3 kmEast (100°)11.1 km/hMostly Cloudy
11:40 AM31 °C22 °C58 %1015.2 hPa11.3 kmESE (110°)11.1 km/hScattered Clouds
12:40 PM31 °C24 °C66 %1014.6 hPa11.3 kmESE (110°)14.8 km/hMostly Cloudy
1:44 PM30 °C24 °C70 %1013.9 hPa11.3 kmENE (70°)14.8 km/hScattered Clouds
2:43 PM31 °C23 °C62 %1013.2 hPa11.3 kmENE (70°)16.7 km/hPartly Cloudy
3:40 PM30 °C25 °C74 %1013.2 hPa11.3 kmENE (60°)11.1 km/hMostly Cloudy
4:43 PM29 °C24 °C74 %1013.2 hPa11.3 kmENE (70°)13 km/hScattered Clouds
5:42 PM28 °C24 °C79 %1013.5 hPa11.3 kmENE (70°)7.4 km/hPartly Cloudy
6:55 PM27 °C24 °C84 %1013.9 hPa11.3 kmENE (60°)7.4 km/hPartly Cloudy
7:45 PM27 °C24 °C84 %1014.6 hPa11.3 kmNE (50°)11.1 km/hPartly Cloudy
8:44 PM27 °C24 °C84 %1015.2 hPa11.3 kmENE (60°)9.3 km/hScattered Clouds
9:48 PM27 °C23 °C79 %1014.6 hPa11.3 kmNE (50°)16.7 km/hScattered Clouds
10:47 PM27 °C23 °C79 %1015.9 hPa11.3 kmENE (60°)14.8 km/hScattered Clouds
11:46 PM27 °C23 °C79 %1015.6 hPa11.3 kmENE (70°)9.3 km/hPartly Cloudy
Hourly data recorded from MMUN, located 0 kilometers away from Cancun, Quintana Roo







STORIES FROM OUR PARTNERS